Stations météo

réclame
Mon MeteoGroup
Shoeburyness Landwick, Grande-Bretagne (3693): Température de l'air & dewpoint: 26.05.2020 19:00:00 - 01.06.2020 19:00:00 (BST)Shoeburyness Landwick, Grande-Bretagne (3693): Température de l'air -20cm & Température de l'air -100cm: 26.05.2020 19:00:00 - 01.06.2020 19:00:00 (BST)Shoeburyness Landwick, Grande-Bretagne (3693): Vitesse du vent & gusts: 26.05.2020 19:00:00 - 01.06.2020 19:00:00 (BST)Shoeburyness Landwick, Grande-Bretagne (3693): Direction du vent: 26.05.2020 19:00:00 - 01.06.2020 19:00:00 (BST)Shoeburyness Landwick, Grande-Bretagne (3693): reduced air pressure: 26.05.2020 19:00:00 - 01.06.2020 19:00:00 (BST)Shoeburyness Landwick, Grande-Bretagne (3693): visibility: 26.05.2020 19:00:00 - 01.06.2020 19:00:00 (BST)Shoeburyness Landwick, Grande-Bretagne (3693): Ensoleillement: 26.05.2020 19:00:00 - 01.06.2020 19:00:00 (BST)Shoeburyness Landwick, Grande-Bretagne (3693): Quantités de précipitations: 26.05.2020 19:00:00 - 01.06.2020 19:00:00 (BST)
Date & Time tt [°C] td [°C] tt -20cm [°C] tt -100cm [°C] ff [km/h] ff [knt] fx [km/h] fx [knt] dd ppp [hPa] vv [km] sd [min] rr [mm]
01.06.2020 19:00:00 18,1 11,2 - - 18 10 - - ENE 1021,8 30 60 0,0
01.06.2020 18:00:00 19,0 10,4 - - 24 13 - - ENE 1021,8 35 60 0,0
01.06.2020 17:00:00 20,4 11,3 - - 24 13 - - ENE 1022,3 40 60 0,0
01.06.2020 16:00:00 20,4 11,9 - - 22 12 - - E 1022,3 40 60 0,0
01.06.2020 15:00:00 21,5 10,1 - - 21 11 - - E 1022,5 50 60 0,0
01.06.2020 14:00:00 19,6 11,0 - - 18 10 - - E 1022,8 45 60 0,0
01.06.2020 13:00:00 18,9 12,0 - - 21 11 - - E 1023,1 30 60 0,0
01.06.2020 12:00:00 19,2 11,9 - - 22 12 - - E 1023,1 30 60 0,0
01.06.2020 11:00:00 20,3 10,9 - - 16 9 - - NE 1023,0 30 60 0,0
01.06.2020 10:00:00 18,8 11,6 17,5 15,0 15 8 - - NE 1023,0 35 60 0,0
01.06.2020 09:00:00 17,6 12,3 - - 15 8 - - NE 1023,1 30 60 0,0
01.06.2020 08:00:00 15,4 12,4 - - 16 9 - - NE 1022,9 30 60 0,0
01.06.2020 07:00:00 13,3 11,9 - - 13 7 - - NNE 1023,0 25 60 0,0
01.06.2020 06:00:00 10,7 10,3 - - 11 6 - - N 1022,7 20 12 0,0
01.06.2020 05:00:00 9,7 9,1 - - 11 6 - - N 1022,6 19 0 0,0
01.06.2020 04:00:00 9,9 9,0 - - 9 5 - - N 1022,6 15 0 0,0
01.06.2020 03:00:00 10,8 9,7 - - 11 6 - - N 1022,8 19 0 0,0
01.06.2020 02:00:00 12,5 10,9 - - 13 7 - - NNE 1022,9 23 0 0,0
01.06.2020 01:00:00 13,1 10,8 - - 13 7 - - NE 1023,1 19 - 0,0
01.06.2020 00:00:00 13,8 10,7 - - 18 10 - - NE 1023,2 25 0 0,0
31.05.2020 23:00:00 13,9 10,6 - - 22 12 - - ENE 1023,2 35 0 0,0
31.05.2020 22:00:00 14,2 10,1 - - 24 13 - - ENE 1023,3 30 0 0,0
31.05.2020 21:00:00 14,6 10,2 - - 22 12 - - ENE 1023,1 40 48 0,0
31.05.2020 20:00:00 16,0 9,4 - - 28 15 46 25 ENE 1023,0 40 60 0,0
31.05.2020 19:00:00 17,0 8,2 - - 31 17 - - ENE 1022,9 45 60 0,0
31.05.2020 18:00:00 18,0 7,4 - - 29 16 - - ENE 1022,9 40 60 0,0
31.05.2020 17:00:00 19,0 8,5 - - 31 17 - - E 1023,1 35 60 0,0
31.05.2020 16:00:00 18,8 8,3 - - 29 16 48 26 E 1023,4 35 60 0,0
31.05.2020 15:00:00 19,3 10,1 - - 29 16 - - E 1023,4 45 60 0,0
31.05.2020 14:00:00 19,6 8,5 - - 24 13 - - E 1023,5 35 60 0,0
31.05.2020 13:00:00 20,2 8,7 - - 28 15 - - E 1023,6 40 60 0,0
31.05.2020 12:00:00 19,4 10,0 - - 24 13 - - E 1023,6 29 60 0,0
31.05.2020 11:00:00 18,7 9,7 - - 22 12 - - E 1023,4 35 60 0,0
31.05.2020 10:00:00 18,5 10,0 17,5 15,0 24 13 - - E 1023,3 45 60 0,0
31.05.2020 09:00:00 17,7 9,7 - - 22 12 - - E 1023,0 30 60 0,0
31.05.2020 08:00:00 17,0 10,7 - - 21 11 - - E 1022,9 50 60 0,0
31.05.2020 07:00:00 15,6 12,3 - - 15 8 - - ENE 1022,7 16 60 0,0
31.05.2020 06:00:00 13,5 12,7 - - 11 6 - - ENE 1022,4 10 18 0,0
31.05.2020 05:00:00 11,9 11,1 - - 13 7 - - NE 1021,9 9 0 0,0
31.05.2020 04:00:00 11,7 10,4 - - 9 5 - - NNE 1022,1 13 0 0,0
31.05.2020 03:00:00 12,9 10,7 - - 16 9 - - ENE 1022,1 18 0 0,0
31.05.2020 02:00:00 13,3 9,3 - - 11 6 - - NE 1022,3 25 0 0,0
31.05.2020 01:00:00 13,1 9,3 - - 13 7 - - NNE 1022,6 20 - 0,0
31.05.2020 00:00:00 14,6 9,1 - - 18 10 - - ENE 1022,8 29 0 0,0
30.05.2020 23:00:00 14,2 9,5 - - 15 8 - - ENE 1022,6 27 0 0,0
30.05.2020 22:00:00 14,7 9,7 - - 18 10 - - ENE 1022,3 35 0 0,0
30.05.2020 21:00:00 15,3 9,6 - - 22 12 - - ENE 1022,0 26 42 0,0
30.05.2020 20:00:00 16,4 9,3 - - 24 13 - - ENE 1021,9 30 60 0,0
30.05.2020 19:00:00 17,5 8,9 - - 29 16 - - E 1022,1 45 60 0,0
30.05.2020 18:00:00 18,5 8,0 - - 31 17 - - E 1022,1 29 60 0,0
30.05.2020 17:00:00 19,0 8,5 - - 31 17 - - E 1022,5 45 60 0,0
30.05.2020 16:00:00 19,9 9,8 - - 29 16 - - E 1022,6 25 60 0,0
30.05.2020 15:00:00 19,3 9,4 - - 26 14 - - E 1023,1 23 60 0,0
30.05.2020 14:00:00 19,8 8,3 - - 26 14 - - E 1023,2 35 60 0,0
30.05.2020 13:00:00 19,9 10,7 - - 24 13 - - E 1023,6 35 60 0,0
30.05.2020 12:00:00 19,1 11,6 - - 21 11 - - ENE 1023,9 30 60 0,0
30.05.2020 11:00:00 18,7 12,3 - - 16 9 - - ENE 1024,1 19 60 0,0
30.05.2020 10:00:00 17,8 11,1 17,2 14,9 15 8 - - E 1024,2 27 60 0,0
30.05.2020 09:00:00 16,7 11,6 - - 16 9 - - ENE 1024,2 13 60 0,0
30.05.2020 08:00:00 15,7 12,5 - - 15 8 - - ENE 1024,0 20 60 0,0
30.05.2020 07:00:00 14,0 12,8 - - 11 6 - - ENE 1024,0 11 60 0,0
30.05.2020 06:00:00 9,9 9,8 - - 8 4 - - NE 1024,1 6 12 0,0
30.05.2020 05:00:00 8,3 7,9 - - 9 5 - - N 1024,2 5 0 0,0
30.05.2020 04:00:00 8,7 8,3 - - 9 5 - - N 1024,3 7 0 0,0
30.05.2020 03:00:00 9,6 9,1 - - 11 6 - - NE 1024,6 10 0 0,0
30.05.2020 02:00:00 9,7 9,0 - - 11 6 - - NNE 1025,0 12 0 0,0
30.05.2020 01:00:00 9,7 8,8 - - 9 5 - - NNE 1025,4 15 - 0,0
30.05.2020 00:00:00 10,8 9,5 - - 11 6 - - ENE 1025,7 17 0 0,0
29.05.2020 23:00:00 11,3 9,5 - - 13 7 - - ENE 1025,8 19 0 0,0
29.05.2020 22:00:00 11,6 9,4 - - 16 9 - - ENE 1025,8 27 0 0,0
29.05.2020 21:00:00 12,2 9,4 - - 16 9 - - ENE 1025,6 22 48 0,0
29.05.2020 20:00:00 13,5 8,9 - - 21 11 - - ENE 1025,8 28 60 0,0
29.05.2020 19:00:00 14,1 8,4 - - 24 13 - - ENE 1026,0 40 60 0,0
29.05.2020 18:00:00 14,6 8,4 - - 26 14 - - E 1026,5 35 60 0,0
29.05.2020 17:00:00 15,3 9,5 - - 26 14 - - E 1026,9 30 60 0,0
29.05.2020 16:00:00 15,8 8,5 - - 26 14 - - E 1027,3 40 60 0,0
29.05.2020 15:00:00 16,2 8,1 - - 24 13 - - E 1027,9 35 60 0,0
29.05.2020 14:00:00 16,2 9,6 - - 24 13 - - E 1028,2 35 60 0,0
29.05.2020 13:00:00 16,6 11,2 - - 24 13 - - E 1028,7 16 60 0,0
29.05.2020 12:00:00 16,1 10,2 - - 22 12 - - E 1029,4 16 60 0,0
29.05.2020 11:00:00 15,6 10,4 - - 18 10 - - E 1029,6 22 60 0,0
29.05.2020 10:00:00 16,0 10,8 17,4 14,7 18 10 - - E 1029,6 21 60 0,0
29.05.2020 09:00:00 15,2 9,8 - - 18 10 - - E 1029,6 25 60 0,0
29.05.2020 08:00:00 14,5 9,7 - - 18 10 - - E 1029,7 23 60 0,0
29.05.2020 07:00:00 14,0 9,4 - - 18 10 - - E 1029,7 27 60 0,0
29.05.2020 06:00:00 12,9 9,9 - - 15 8 - - E 1029,9 23 30 0,0
29.05.2020 05:00:00 12,1 9,7 - - 15 8 - - E 1029,8 21 0 0,0
29.05.2020 04:00:00 11,9 9,3 - - 15 8 - - E 1030,2 23 0 0,0
29.05.2020 03:00:00 10,9 9,0 - - 11 6 - - E 1030,3 22 0 0,0
29.05.2020 02:00:00 11,1 8,7 - - 13 7 - - ENE 1030,7 22 0 0,0
29.05.2020 01:00:00 10,9 8,0 - - 15 8 - - ENE 1030,9 29 - 0,0
29.05.2020 00:00:00 9,6 6,8 - - 9 5 - - ENE 1031,3 30 0 0,0
28.05.2020 23:00:00 11,7 7,2 - - 13 7 - - ENE 1031,6 35 0 0,0
28.05.2020 22:00:00 12,2 7,6 - - 15 8 - - ENE 1031,9 30 0 0,0
28.05.2020 21:00:00 13,0 8,3 - - 18 10 - - ENE 1031,9 30 36 0,0
28.05.2020 20:00:00 14,3 9,0 - - 22 12 - - E 1031,9 28 60 0,0
28.05.2020 19:00:00 15,2 8,9 - - 24 13 - - ENE 1032,2 29 60 0,0
28.05.2020 18:00:00 15,9 7,2 - - 24 13 - - E 1032,5 35 60 0,0
28.05.2020 17:00:00 16,0 9,8 - - 24 13 - - E 1033,1 28 60 0,0
28.05.2020 16:00:00 16,3 8,1 - - 22 12 - - E 1033,4 23 60 0,0
28.05.2020 15:00:00 16,6 9,4 - - 22 12 - - E 1034,0 23 60 0,0
28.05.2020 14:00:00 16,6 9,1 - - 22 12 - - E 1034,4 30 60 0,0
28.05.2020 13:00:00 16,2 8,4 - - 24 13 - - E 1034,8 35 60 0,0
28.05.2020 12:00:00 16,5 8,3 - - 22 12 - - E 1035,3 45 60 0,0
28.05.2020 11:00:00 16,2 8,1 - - 22 12 - - E 1035,4 35 60 0,0
28.05.2020 10:00:00 16,0 8,3 17,7 14,7 21 11 - - E 1035,7 27 60 0,0
28.05.2020 09:00:00 15,2 8,2 - - 21 11 - - E 1035,9 35 60 0,0
28.05.2020 08:00:00 14,5 8,1 - - 21 11 - - E 1036,1 22 60 0,0
28.05.2020 07:00:00 13,6 8,7 - - 18 10 - - E 1036,0 19 60 0,0
28.05.2020 06:00:00 11,6 10,3 - - 9 5 - - ENE 1035,8 12 18 0,0
28.05.2020 05:00:00 11,0 9,8 - - 13 7 - - ENE 1035,8 15 0 0,0
28.05.2020 04:00:00 10,6 9,4 - - 13 7 - - ENE 1035,9 15 0 0,0
28.05.2020 03:00:00 10,8 9,9 - - 11 6 - - ENE 1036,0 22 0 0,0
28.05.2020 02:00:00 11,4 10,2 - - 13 7 - - ENE 1036,1 30 0 0,0
28.05.2020 01:00:00 11,7 10,7 - - 18 10 - - ENE 1036,3 30 - 0,0
28.05.2020 00:00:00 11,8 10,2 - - 15 8 - - ENE 1036,4 25 0 0,0
27.05.2020 23:00:00 12,8 10,3 - - 15 8 - - ENE 1036,5 40 0 0,0
27.05.2020 22:00:00 12,8 9,8 - - 15 8 - - E 1036,3 50 0 0,0
27.05.2020 21:00:00 13,9 9,4 - - 15 8 - - E 1035,9 45 6 0,0
27.05.2020 20:00:00 14,8 9,1 - - 18 10 - - E 1035,3 50 54 0,0
27.05.2020 19:00:00 15,8 11,4 - - 18 10 - - ESE 1035,0 50 54 0,0
27.05.2020 18:00:00 16,8 12,1 - - 21 11 - - ESE 1034,9 25 60 0,0
27.05.2020 17:00:00 16,3 10,7 - - 22 12 - - ESE 1035,1 30 60 0,0
27.05.2020 16:00:00 16,9 10,9 - - 21 11 - - SE 1035,4 40 48 0,0
27.05.2020 15:00:00 16,2 10,5 - - 18 10 - - SE 1035,6 30 54 0,0
27.05.2020 14:00:00 17,8 10,9 - - 18 10 - - ESE 1035,8 30 60 0,0
27.05.2020 13:00:00 19,0 11,4 - - 16 9 - - ESE 1036,2 35 36 0,0
27.05.2020 12:00:00 17,6 9,7 - - 13 7 - - ESE 1036,3 45 54 0,0
27.05.2020 11:00:00 18,0 10,1 - - 13 7 - - ESE 1036,3 40 60 0,0
27.05.2020 10:00:00 17,9 9,2 17,7 14,4 15 8 - - ESE 1036,4 45 60 0,0
27.05.2020 09:00:00 17,1 9,3 - - 11 6 - - ENE 1036,3 35 60 0,0
27.05.2020 08:00:00 16,3 10,2 - - 8 4 - - E 1036,1 30 60 0,0
27.05.2020 07:00:00 13,8 12,3 - - 11 6 - - NNE 1035,8 15 60 0,0
27.05.2020 06:00:00 11,0 10,5 - - 2 1 - - NW 1035,7 13 18 0,0
27.05.2020 05:00:00 9,9 9,2 - - 8 4 - - NNE 1035,9 11 0 0,0
27.05.2020 04:00:00 9,7 8,9 - - 5 3 - - NNE 1035,8 12 0 0,0
27.05.2020 03:00:00 9,5 8,5 - - 5 3 - - NNE 1035,9 15 0 0,0
27.05.2020 02:00:00 9,8 8,5 - - 5 3 - - N 1035,9 21 0 0,0
27.05.2020 01:00:00 10,6 8,5 - - 0 0 - - N 1035,9 35 - 0,0
27.05.2020 00:00:00 11,8 9,4 - - 8 4 - - E 1036,0 45 0 0,0
26.05.2020 23:00:00 12,5 9,6 - - 8 4 - - ESE 1036,1 50 0 0,0
26.05.2020 22:00:00 13,9 9,4 - - 13 7 - - E 1036,0 40 0 0,0
26.05.2020 21:00:00 14,4 8,9 - - 18 10 - - E 1035,6 50 0 0,0
26.05.2020 20:00:00 15,6 10,5 - - 16 9 - - E 1035,1 40 6 0,0
26.05.2020 19:00:00 17,2 12,8 - - 16 9 - - E 1034,8 30 12 0,0

tt = Température de l'air
td = dewpoint
tt -20cm = Température de l'air -20cm
tt -100cm = Température de l'air -100cm
ff = Vitesse du vent
fx = gusts
dd = Direction du vent
ppp = reduced air pressure
vv = visibility
sd = Ensoleillement
rr = Quantités de précipitations

stations d'obs. à proximité